Location: Namasale
(1.5000°N, 32.6167°E)
Time: 22:17:18
(UTC+00:00)

Vanguard 3 - Pass Details

Date: 25 April 2021
Orbit: 507 x 3262 km, 33.4° (Epoch: 16 May)

Event Time Altitude Azimuth Distance (km) Brightness Sun altitude
Rises 17:59:12 0° 239° (WSW) 7,143 12.5 -31.5°
Reaches altitude 10° 18:04:22 10° 241° (WSW) 5,946 12.0 -32.7°
Maximum altitude 18:21:44 68° 321° (NW) 2,325 9.3 -36.9°
Enters shadow 18:26:36 41° 30° (NNE) 2,519 9.4 -38.0°
